When you browse on this site, cookies collect data to enhance your experience and personalize the content and advertising you see.
Visit our Privacy Policy to learn more. By continuing to use the site, you agree to this use of cookies and data.
  • In Germany
  • List of Countries
  • For 7 days
  • Water Temperature
  • Satellite Maps
  • Weather Map
  • Weather Widgets
  • user-avatar
    Login

    Hourly Weather Ara-Kiret

    Today, 22 February, Friday

    Time Temperature Precipitation Wind Pressure Humidity
    00:00 -12°C° 0 mm 2 mps 693 mmHg 76%
    01:00 -13°C° 0 mm 2 mps 693 mmHg 76%
    02:00 -13°C° 0 mm 2 mps 692 mmHg 77%
    03:00 -13°C° 0 mm 2 mps 692 mmHg 78%
    04:00 -13°C° 0 mm 2 mps 692 mmHg 78%
    05:00 -13°C° 0 mm 2 mps 692 mmHg 78%
    06:00 -13°C° 0 mm 2 mps 692 mmHg 77%
    07:00 -13°C° 0 mm 2 mps 693 mmHg 75%
    08:00 -10°C° 0 mm 2 mps 693 mmHg 70%
    09:00 -7°C° 0 mm 2 mps 693 mmHg 65%
    10:00 -5°C° 0 mm 2 mps 693 mmHg 60%
    11:00 -4°C° 0 mm 2 mps 692 mmHg 58%
    12:00 -3°C° 0 mm 2 mps 692 mmHg 55%
    13:00 -2°C° 0 mm 2 mps 691 mmHg 53%
    14:00 -2°C° 0 mm 2 mps 691 mmHg 57%
    15:00 -1°C° 0 mm 1 mps 691 mmHg 61%
    16:00 -2°C° 0 mm 1 mps 691 mmHg 65%
    17:00 -4°C° 0 mm 1 mps 691 mmHg 68%
    18:00 -7°C° 0 mm 1 mps 691 mmHg 72%
    19:00 -8°C° 0 mm 0 mps 692 mmHg 75%
    20:00 -8°C° 0 mm 0 mps 692 mmHg 76%
    21:00 -8°C° 0 mm 0 mps 693 mmHg 78%
    22:00 -7°C° 0 mm 0 mps 693 mmHg 79%
    23:00 -7°C° 0.1 mm 0 mps 694 mmHg 83%

    Tomorrow, 23 February, Saturday

    Time Temperature Precipitation Wind Pressure Humidity
    00:00 -8°C° 0.1 mm 1 mps 694 mmHg 87%
    01:00 -8°C° 0.1 mm 1 mps 694 mmHg 90%
    02:00 -8°C° 0.1 mm 1 mps 694 mmHg 92%
    03:00 -8°C° 0.1 mm 1 mps 694 mmHg 94%
    04:00 -8°C° 0.1 mm 1 mps 694 mmHg 95%
    05:00 -9°C° 0 mm 1 mps 694 mmHg 95%
    06:00 -10°C° 0 mm 1 mps 694 mmHg 95%
    07:00 -11°C° 0 mm 1 mps 695 mmHg 94%
    08:00 -10°C° 0 mm 1 mps 695 mmHg 85%
    09:00 -8°C° 0 mm 1 mps 695 mmHg 76%
    10:00 -6°C° 0 mm 1 mps 696 mmHg 67%
    11:00 -6°C° 0 mm 1 mps 695 mmHg 64%
    12:00 -4°C° 0 mm 1 mps 695 mmHg 61%
    13:00 -5°C° 0 mm 2 mps 694 mmHg 58%
    14:00 -4°C° 0 mm 1 mps 694 mmHg 61%
    15:00 -4°C° 0 mm 1 mps 694 mmHg 64%
    16:00 -4°C° 0 mm 1 mps 694 mmHg 67%
    17:00 -7°C° 0 mm 1 mps 694 mmHg 71%
    18:00 -9°C° 0 mm 1 mps 694 mmHg 75%
    19:00 -11°C° 0 mm 1 mps 694 mmHg 79%
    20:00 -11°C° 0 mm 1 mps 694 mmHg 80%
    21:00 -11°C° 0 mm 1 mps 694 mmHg 81%
    22:00 -12°C° 0 mm 1 mps 694 mmHg 81%
    23:00 -12°C° 0 mm 1 mps 694 mmHg 83%

    Day after tomorrow, 24 February, Sunday

    Time Temperature Precipitation Wind Pressure Humidity
    00:00 -12°C° 0 mm 1 mps 694 mmHg 84%
    01:00 -13°C° 0 mm 1 mps 694 mmHg 85%
    02:00 -13°C° 0 mm 1 mps 694 mmHg 85%
    03:00 -13°C° 0 mm 1 mps 694 mmHg 86%
    04:00 -13°C° 0 mm 1 mps 694 mmHg 86%
    05:00 -14°C° 0 mm 1 mps 694 mmHg 87%
    06:00 -14°C° 0 mm 1 mps 694 mmHg 87%
    07:00 -14°C° 0 mm 1 mps 694 mmHg 87%
    08:00 -14°C° 0 mm 2 mps 694 mmHg 83%
    09:00 -10°C° 0 mm 2 mps 695 mmHg 78%
    10:00 -8°C° 0 mm 2 mps 695 mmHg 74%
    11:00 -7°C° 0 mm 2 mps 694 mmHg 73%
    12:00 -6°C° 0 mm 2 mps 694 mmHg 71%
    13:00 -5°C° 0 mm 2 mps 693 mmHg 70%
    14:00 -5°C° 0 mm 2 mps 693 mmHg 71%
    15:00 -5°C° 0 mm 2 mps 693 mmHg 73%
    16:00 -5°C° 0 mm 2 mps 692 mmHg 75%
    17:00 -7°C° 0 mm 2 mps 692 mmHg 78%
    18:00 -9°C° 0 mm 2 mps 692 mmHg 82%
    19:00 -10°C° 0 mm 2 mps 692 mmHg 86%
    20:00 -12°C° 0 mm 2 mps 692 mmHg 86%
    21:00 -12°C° 0 mm 2 mps 692 mmHg 85%
    22:00 -13°C° 0 mm 2 mps 692 mmHg 85%
    23:00 -13°C° 0 mm 2 mps 692 mmHg 85%

    25 February, Monday

    Time Temperature Precipitation Wind Pressure Humidity
    00:00 -13°C° 0 mm 2 mps 692 mmHg 84%
    01:00 -13°C° 0 mm 2 mps 692 mmHg 84%
    02:00 -13°C° 0 mm 2 mps 691 mmHg 84%
    03:00 -13°C° 0 mm 2 mps 691 mmHg 83%
    04:00 -14°C° 0 mm 2 mps 691 mmHg 83%
    05:00 -14°C° 0 mm 2 mps 691 mmHg 82%
    06:00 -14°C° 0 mm 2 mps 690 mmHg 81%
    07:00 -14°C° 0 mm 2 mps 690 mmHg 80%
    08:00 -12°C° 0 mm 2 mps 690 mmHg 74%
    09:00 -9°C° 0 mm 3 mps 690 mmHg 68%
    10:00 -7°C° 0 mm 3 mps 690 mmHg 63%
    11:00 -6°C° 0 mm 3 mps 689 mmHg 61%
    12:00 -5°C° 0 mm 3 mps 689 mmHg 60%
    13:00 -4°C° 0 mm 3 mps 688 mmHg 59%
    14:00 -4°C° 0 mm 3 mps 688 mmHg 60%
    15:00 -4°C° 0 mm 3 mps 687 mmHg 62%
    16:00 -3°C° 0 mm 2 mps 687 mmHg 64%
    17:00 -5°C° 0 mm 2 mps 687 mmHg 68%
    18:00 -7°C° 0 mm 2 mps 687 mmHg 73%
    19:00 -9°C° 0 mm 2 mps 687 mmHg 78%
    20:00 -10°C° 0 mm 2 mps 688 mmHg 78%
    21:00 -10°C° 0 mm 2 mps 688 mmHg 78%
    22:00 -10°C° 0 mm 2 mps 688 mmHg 79%
    23:00 -12°C° 0 mm 2 mps 688 mmHg 79%

    26 February, Tuesday

    Time Temperature Precipitation Wind Pressure Humidity
    00:00 -12°C° 0 mm 2 mps 688 mmHg 80%
    01:00 -13°C° 0 mm 2 mps 688 mmHg 81%
    02:00 -11°C° 0 mm 1 mps 688 mmHg 81%
    03:00 -11°C° 0 mm 1 mps 688 mmHg 81%
    04:00 -12°C° 0 mm 1 mps 688 mmHg 82%
    05:00 -12°C° 0 mm 1 mps 688 mmHg 82%
    06:00 -12°C° 0 mm 1 mps 688 mmHg 82%
    07:00 -12°C° 0 mm 1 mps 688 mmHg 83%
    08:00 -10°C° 0 mm 1 mps 689 mmHg 77%
    09:00 -8°C° 0 mm 1 mps 689 mmHg 72%
    10:00 -4°C° 0 mm 1 mps 689 mmHg 66%
    11:00 -3°C° 0 mm 1 mps 689 mmHg 65%
    12:00 -2°C° 0 mm 1 mps 689 mmHg 63%
    13:00 -2°C° 0 mm 1 mps 689 mmHg 61%
    14:00 -2°C° 0 mm 1 mps 688 mmHg 64%
    15:00 -2°C° 0 mm 1 mps 688 mmHg 66%
    16:00 -4°C° 0 mm 0 mps 688 mmHg 69%
    17:00 -6°C° 0 mm 0 mps 688 mmHg 74%
    18:00 -8°C° 0 mm 0 mps 688 mmHg 78%
    19:00 -10°C° 0 mm 0 mps 688 mmHg 83%
    20:00 -10°C° 0 mm 0 mps 688 mmHg 84%
    21:00 -10°C° 0 mm 1 mps 689 mmHg 85%
    22:00 -11°C° 0 mm 1 mps 689 mmHg 86%
    23:00 -11°C° 0 mm 1 mps 689 mmHg 86%

    27 February, Wednesday

    Time Temperature Precipitation Wind Pressure Humidity
    00:00 -11°C° 0 mm 1 mps 689 mmHg 86%
    01:00 -12°C° 0 mm 1 mps 689 mmHg 87%
    02:00 -12°C° 0 mm 1 mps 688 mmHg 87%
    03:00 -12°C° 0 mm 1 mps 688 mmHg 87%
    04:00 -12°C° 0 mm 1 mps 688 mmHg 87%
    05:00 -12°C° 0 mm 1 mps 689 mmHg 86%
    06:00 -13°C° 0 mm 1 mps 689 mmHg 86%
    07:00 -13°C° 0 mm 1 mps 689 mmHg 86%
    08:00 -10°C° 0 mm 1 mps 689 mmHg 80%
    09:00 -8°C° 0 mm 1 mps 689 mmHg 74%
    10:00 -6°C° 0 mm 1 mps 690 mmHg 68%
    11:00 -4°C° 0 mm 1 mps 689 mmHg 66%
    12:00 -3°C° 0 mm 1 mps 689 mmHg 64%
    13:00 -2°C° 0 mm 1 mps 689 mmHg 62%
    14:00 -2°C° 0 mm 1 mps 689 mmHg 65%
    15:00 -2°C° 0 mm 1 mps 689 mmHg 67%
    16:00 -4°C° 0 mm 0 mps 688 mmHg 70%
    17:00 -6°C° 0 mm 0 mps 689 mmHg 74%
    18:00 -7°C° 0 mm 0 mps 689 mmHg 79%
    19:00 -9°C° 0 mm 0 mps 689 mmHg 83%
    20:00 -10°C° 0 mm 1 mps 689 mmHg 84%
    21:00 -10°C° 0 mm 1 mps 689 mmHg 84%
    22:00 -10°C° 0 mm 1 mps 689 mmHg 85%
    23:00 -10°C° 0 mm 1 mps 689 mmHg 85%
    Show more